Location: Yaylakuzdere
(36.5736°N, 30.4208°E)
Time: 05:05:51
(UTC+00:00)

Daily predictions for brighter satellites

Satellite Brightness Start Highest point End
(mag) Time Altitude Azimuth Time Altitude Azimuth Time Altitude Azimuth
Cosmos 2219 Rocket 4.5 01:47:54 16° SE 01:47:54 16° SE 01:48:57 10° SE
COSMOS 2428 2.7 02:28:29 76° ENE 02:28:34 76° ENE 02:34:15 10° SSE
Cosmos 1455 Rocket 4.1 02:35:45 10° SSE 02:39:57 45° E 02:44:09 10° NNE
FALCON 9 R/B 2.1 02:41:46 69° SSW 02:41:54 69° S 02:52:10 10° ESE
Cosmos 1627 Rocket 4.4 02:36:04 10° S 02:42:11 85° E 02:48:20 10° N
SL-08 R/B 3.3 02:38:06 10° SSE 02:42:50 80° ENE 02:43:06 76° NNE
USA 267 3.5 02:36:43 10° NE 02:43:13 67° SE 02:46:59 27° SSW
Cosmos 2297 Rocket 2.2 02:42:32 36° S 02:44:57 78° ESE 02:50:37 10° NNE
Cosmos 2322 4.3 02:51:48 39° SSW 02:51:48 39° SSW 02:55:38 10° S
CZ-3 R/B 3.8 02:36:18 12° SW 02:52:54 35° S 02:59:18 10° ESE
Cosmos 2227 Rocket 2.9 02:47:59 10° S 02:53:29 54° ESE 02:59:00 10° NNE
Chandra Rocket (1) 3.7 03:02:43 15° S 03:02:43 15° S 03:04:30 10° SE
NOAA 11 4.4 02:58:27 10° N 03:03:24 47° WNW 03:03:24 47° WNW
Cosmos 1238 Rocket 2.8 03:04:32 27° SSE 03:06:06 61° E 03:09:41 10° NNE
Cosmos 1892 Rocket 3.6 03:02:29 10° N 03:06:49 74° E 03:11:07 10° SSE
SJ-6F 4.2 03:06:41 10° N 03:10:44 73° WNW 03:13:00 25° SSW
SKYMED 2 3.7 03:09:37 10° SSE 03:13:56 75° ENE 03:18:17 10° N
H-2A R/B 2.8 03:13:31 10° NNE 03:18:50 56° E 03:24:01 10° S
DELTA 2 DEB (DPAF) 4.3 03:15:08 10° S 03:19:17 44° W 03:19:22 43° W
Cosmos 1633 3.5 03:22:00 29° SSW 03:22:00 29° SSW 03:23:53 10° S
ATLAS CENTAUR R/B 3.5 03:18:52 30° W 03:21:25 38° NW 03:25:45 10° NNE
Spot 4 Rocket 4.3 03:18:44 10° N 03:23:33 42° WNW 03:28:01 12° SW
SJ 16-02 3.5 03:21:20 10° N 03:24:58 25° ENE 03:28:35 10° ESE
Cosmos 2219 Rocket 4.0 03:29:43 13° SW 03:29:43 13° SW 03:30:38 10° SW
Cosmos 2219 3.3 03:22:33 10° SSW 03:28:13 81° ESE 03:33:53 10° NNE
Cosmos 1553 Rocket 4.0 03:26:15 10° N 03:32:40 88° W 03:39:04 10° S
Meteor 1-29 3.4 03:32:20 10° N 03:34:46 35° NW 03:34:46 35° NW
SL-12 R/B (Aux Motor) 3.9 03:36:16 45° WSW 03:36:52 89° SE 03:41:04 10° ENE
[s.n.55424] 4.3 03:36:47 10° N 03:39:11 31° ENE 03:41:32 10° SE
Cosmos 1992 Rocket 4.0 03:34:16 10° SSW 03:39:22 56° WNW 03:44:30 10° N
Meteor 1-31 Rocket 3.1 03:38:12 10° NNE 03:42:04 68° ESE 03:45:55 10° S
Cosmos 2237 Rocket 2.1 03:36:53 10° NNW 03:42:33 70° WSW 03:48:08 10° SSE
Cosmos 1825 4.3 03:48:47 11° SW 03:48:47 11° SW 03:49:05 10° SW
Cosmos 482 Debris 2.0 03:51:16 58° WSW 03:51:30 75° NW 03:53:21 10° NE
Cosmos 1980 3.9 03:48:09 10° NNW 03:53:37 51° WSW 03:59:04 10° S
CZ-2C R/B 3.9 03:51:24 10° NNW 03:54:36 24° WNW 03:57:48 10° SW
Cosmos 2082 3.9 03:50:16 10° SSW 03:55:55 76° ESE 04:01:34 10° NNE
CZ-4B R/B 4.0 03:51:34 10° N 03:55:58 76° WNW 04:00:20 10° SSW
Cosmos 2266 Rocket 4.0 03:52:33 10° S 03:58:58 83° W 04:05:24 10° N
Cosmos 968 Rocket 4.4 03:57:21 10° NW 04:01:40 26° W 04:05:57 10° SSW
COSMO-SKYMED 1 3.4 03:58:11 10° SSW 04:01:58 29° W 04:05:46 10° NW
NOSS 3-2 (A) 4.4 03:57:33 10° NNW 04:05:25 77° ENE 04:14:19 10° SE
MINOTAUR 4 R/B 3.8 04:02:19 10° S 04:05:43 80° WSW 04:09:08 10° NNW
Cosmos 1544 Rocket 4.0 04:02:06 10° SSW 04:06:10 39° W 04:10:15 10° N
COBE Rocket 4.3 04:01:37 10° NNE 04:06:22 69° E 04:11:15 10° S
Cosmos 1939 Rocket 3.9 04:03:51 10° NNW 04:06:52 22° WNW 04:09:51 10° WSW
Cosmos 1184 Rocket 2.3 04:07:38 10° SSW 04:09:42 34° W 04:11:48 10° N
Cosmos 2058 3.9 04:05:55 10° N 04:09:54 50° E 04:13:50 10° SSE
SL-8 R/B 4.2 04:05:51 11° W 04:10:13 44° NNW 04:14:50 10° NE
CZ-4C R/B 4.5 04:07:05 10° SSW 04:10:43 27° W 04:14:19 10° NW
S3M 3.9 04:04:44 10° N 04:10:56 75° W 04:17:02 10° S
USA 276 3.1 04:09:32 14° W 04:11:15 25° SW 04:13:35 10° SSE
SMAP 3.4 04:06:45 10° NNE 04:11:25 72° ESE 04:16:02 10° S
COSMOS 2428 4.4 04:10:34 11° W 04:12:02 12° W 04:14:12 10° WSW
Okean 1-7 Rocket 3.6 04:08:50 10° NNW 04:13:21 65° W 04:17:51 10° S
Cosmos 1655 Rocket 4.0 04:09:26 10° SSW 04:15:46 71° W 04:22:06 10° N
[s.n.55392] 2.9 04:14:10 10° NNW 04:17:01 50° WSW 04:19:51 10° S
[s.n.55391] 3.0 04:15:45 10° NW 04:18:37 47° WSW 04:21:28 10° S
[s.n.55393] 3.0 04:16:04 10° NW 04:18:56 46° WSW 04:21:46 10° S
[s.n.55397] 3.1 04:16:14 10° NW 04:19:05 46° WSW 04:21:55 10° S
[s.n.55395] 3.1 04:16:24 10° NW 04:19:16 46° WSW 04:22:06 10° S
SL-16 R/B 2.5 04:13:41 10° NNW 04:19:23 73° ENE 04:25:03 10° SSE
[s.n.55394] 3.1 04:16:33 10° NW 04:19:24 46° WSW 04:22:13 10° S
[s.n.55399] 3.1 04:16:42 10° NW 04:19:33 45° WSW 04:22:23 10° S
[s.n.55401] 3.1 04:16:51 10° NW 04:19:42 45° WSW 04:22:32 10° S
[s.n.55396] 3.1 04:17:01 10° NW 04:19:51 45° WSW 04:22:41 10° S
[s.n.55398] 3.1 04:17:10 10° NW 04:20:01 44° WSW 04:22:50 10° S
[s.n.55403] 3.1 04:17:19 10° NW 04:20:10 44° WSW 04:22:59 10° S
[s.n.55400] 3.1 04:17:29 10° NW 04:20:19 44° WSW 04:23:08 10° S
[s.n.55405] 3.1 04:17:38 10° NW 04:20:28 44° WSW 04:23:17 10° S
[s.n.55402] 3.1 04:17:48 10° NW 04:20:38 43° WSW 04:23:27 10° S
[s.n.55404] 3.1 04:17:52 10° NW 04:20:42 43° WSW 04:23:31 10° S
[s.n.55407] 3.1 04:17:57 10° NW 04:20:48 43° WSW 04:23:36 10° S
Cosmos 1867 3.7 04:15:35 10° SSW 04:21:00 87° ESE 04:26:29 10° NNE
[s.n.55409] 3.2 04:18:16 10° NW 04:21:06 42° WSW 04:23:54 10° S
[s.n.55406] 3.2 04:18:25 10° NW 04:21:15 42° WSW 04:24:03 10° S
[s.n.55408] 3.2 04:18:34 10° NW 04:21:24 42° WSW 04:24:12 10° S
[s.n.55411] 3.2 04:18:44 10° NW 04:21:34 42° WSW 04:24:22 10° S
[s.n.55413] 3.2 04:18:54 10° NW 04:21:43 41° WSW 04:24:31 10° S
[s.n.55415] 3.2 04:19:03 10° NW 04:21:52 41° WSW 04:24:39 10° S
[s.n.55410] 3.2 04:19:03 10° NW 04:21:53 41° WSW 04:24:40 10° S
[s.n.55412] 3.2 04:19:22 10° NW 04:22:11 41° WSW 04:24:58 10° S
[s.n.55417] 3.2 04:19:24 10° NW 04:22:12 41° WSW 04:25:00 10° S
[s.n.55414] 3.2 04:19:33 10° NW 04:22:21 40° WSW 04:25:08 10° S
[s.n.55419] 3.2 04:19:50 10° NW 04:22:38 40° WSW 04:25:25 10° S
[s.n.55416] 3.3 04:20:00 10° NW 04:22:48 40° WSW 04:25:34 10° S
[s.n.55421] 3.3 04:20:02 10° NW 04:22:50 40° WSW 04:25:37 10° S
[s.n.55418] 3.3 04:20:18 10° NW 04:23:06 39° WSW 04:25:53 10° S
[s.n.55423] 3.3 04:20:28 10° NW 04:23:15 39° WSW 04:26:02 10° S
[s.n.55420] 3.3 04:20:37 10° NW 04:23:25 39° WSW 04:26:11 10° S
[s.n.55425] 3.3 04:20:47 10° NW 04:23:34 39° WSW 04:26:20 10° S
[s.n.55427] 3.3 04:20:54 10° NW 04:23:41 38° WSW 04:26:27 10° S
[s.n.55422] 3.3 04:21:05 10° NW 04:23:52 38° WSW 04:26:37 10° S
[s.n.55429] 3.3 04:21:24 10° NW 04:24:10 38° WSW 04:26:56 10° S
[s.n.55426] 3.3 04:21:34 10° NW 04:24:21 37° WSW 04:27:06 10° S
[s.n.55438] 3.3 04:21:44 10° NW 04:24:29 37° WSW 04:27:12 10° S
[s.n.55431] 3.4 04:21:43 10° NW 04:24:30 37° WSW 04:27:14 10° S
[s.n.55428] 3.4 04:21:52 10° NW 04:24:38 37° WSW 04:27:23 10° S
[s.n.55433] 3.4 04:22:02 10° NW 04:24:47 37° WSW 04:27:32 10° S
[s.n.55430] 3.4 04:22:11 10° NW 04:24:57 37° WSW 04:27:41 10° S
[s.n.55432] 3.4 04:22:21 10° NW 04:25:06 36° WSW 04:27:51 10° S
[s.n.55435] 3.4 04:22:31 10° NW 04:25:15 36° WSW 04:27:59 10° S
[s.n.55437] 3.4 04:22:39 10° NW 04:25:24 36° WSW 04:28:08 10° S
[s.n.55434] 3.4 04:22:49 10° NW 04:25:35 36° WSW 04:28:18 10° S
[s.n.55436] 3.4 04:22:58 10° NW 04:25:44 35° WSW 04:28:27 10° S
[s.n.55439] 3.4 04:23:08 10° NW 04:25:53 35° WSW 04:28:36 10° S
USA 267 3.9 04:20:05 10° NNE 04:25:55 36° NNW 04:31:43 10° W
CZ-4B R/B 4.4 04:24:28 10° NNE 04:27:48 38° E 04:31:10 10° S
Cosmos 2297 Rocket 3.8 04:26:33 10° W 04:29:38 15° NW 04:32:43 10° NNW
SL-08 ROCKET BODY 4.4 04:25:09 10° S 04:31:14 85° W 04:37:14 10° N
CENTAUR R/B 3.4 04:25:25 10° NW 04:34:01 74° WSW 04:43:08 10° SSE
